EW0607 Weather Reports


Display with metric or nautical units.
time (UTC)temp
F
wind
direction
speed
MPH
gust
MPH
rain 1hr
in
rain 24hr
in
rain mn
in
humidity
%
barometer
mb
20260505011010 76 360 2.0 0.0 0.00 0.00 0.00 14 1000.2
20260505010553 76 360 2.0 0.0 0.00 0.00 0.00 13 1000.3
20260505010037 76 360 2.0 0.0 0.00 0.00 0.00 13 1000.2
20260505005520 77 360 2.0 0.0 0.00 0.00 0.00 14 1000.2
20260505005002 77 360 2.0 0.0 0.00 0.00 0.00 14 1000.2
20260505004549 77 360 2.0 0.0 0.00 0.00 0.00 13 1000.2
20260505004025 77 360 2.0 0.0 0.00 0.00 0.00 14 1000.2
20260505003503 78 360 2.0 0.0 0.00 0.00 0.00 15 1000.3
20260505003046 78 360 2.0 0.0 0.00 0.00 0.00 15 1000.3
20260505002528 78 360 2.0 0.0 0.00 0.00 0.00 15 1000.3
20260505002011 78 360 2.0 0.0 0.00 0.00 0.00 16 1000.2
20260505001559 78 360 2.0 0.0 0.00 0.00 0.00 16 1000.4
20260505001038 78 360 2.0 0.0 0.00 0.00 0.00 15 1000.4
20260505000517 79 360 2.0 0.0 0.00 0.00 0.00 14 1000.3
20260505000059 78 360 2.0 0.0 0.00 0.00 0.00 15 1000.2
20260504235542 79 360 2.0 0.0 0.00 0.00 0.00 15 1000.2
20260504235017 79 360 3.0 0.0 0.00 0.00 0.00 15 1000.2
20260504234501 78 360 3.0 0.0 0.00 0.00 0.00 14 1000.2
20260504234051 79 360 3.0 0.0 0.00 0.00 0.00 14 1000.3
20260504233534 78 360 2.0 0.0 0.00 0.00 0.00 14 1000.3
20260504233012 78 360 2.0 0.0 0.00 0.00 0.00 14 1000.3
20260504232555 78 360 2.0 0.0 0.00 0.00 0.00 13 1000.4
20260504232034 78 360 2.0 0.0 0.00 0.00 0.00 13 1000.3
20260504231519 78 360 2.0 0.0 0.00 0.00 0.00 14 1000.4
20260504231102 79 360 2.0 0.0 0.00 0.00 0.00 13 1000.3
20260504230544 78 360 2.0 0.0 0.00 0.00 0.00 14 1000.5
20260504230020 78 360 2.0 0.0 0.00 0.00 0.00 14 1000.5
20260504225502 78 360 3.0 0.0 0.00 0.00 0.00 15 1000.2
20260504225050 79 360 3.0 0.0 0.00 0.00 0.00 14 1000.3
20260504224537 79 360 2.0 0.0 0.00 0.00 0.00 14 1000.3
20260504224014 79 360 2.0 0.0 0.00 0.00 0.00 14 1000.3
20260504223601 79 360 3.0 0.0 0.00 0.00 0.00 12 1000.3
20260504223037 79 360 2.0 0.0 0.00 0.00 0.00 11 1000.3
20260504222516 80 360 2.0 0.0 0.00 0.00 0.00 11 1000.3
20260504222057 80 360 3.0 0.0 0.00 0.00 0.00 11 1000.3
20260504221539 80 360 3.0 0.0 0.00 0.00 0.00 11 1000.4
20260504221016 80 360 3.0 0.0 0.00 0.00 0.00 12 1000.4
20260504220558 80 360 2.0 0.0 0.00 0.00 0.00 12 1000.4
20260504220037 80 360 2.0 0.0 0.00 0.00 0.00 12 1000.5
20260504215516 80 15 2.0 0.0 0.00 0.00 0.00 12 1000.5
20260504215058 80 42 2.0 0.0 0.00 0.00 0.00 12 1000.5
20260504214537 80 220 3.0 0.0 0.00 0.00 0.00 13 1000.6
20260504214019 80 115 3.0 0.0 0.00 0.00 0.00 12 1000.6
20260504213501 80 80 2.0 0.0 0.00 0.00 0.00 13 1000.7
20260504213041 81 252 2.0 0.0 0.00 0.00 0.00 12 1000.7
20260504212526 80 26 3.0 0.0 0.00 0.00 0.00 11 1000.7
20260504212011 79 338 2.0 0.0 0.00 0.00 0.00 11 1001.1
20260504211554 79 259 3.0 0.0 0.00 0.00 0.00 11 1001.1
20260504211034 79 130 3.0 0.0 0.00 0.00 0.00 12 1001.1
20260504210515 79 86 3.0 0.0 0.00 0.00 0.00 12 1001.2
20260504210107 79 113 2.0 0.0 0.00 0.00 0.00 12 1001.2
20260504205542 81 107 2.0 0.0 0.00 0.00 0.00 13 1001.1
20260504205022 80 351 2.0 0.0 0.00 0.00 0.00 14 1001.1
20260504204510 79 113 2.0 0.0 0.00 0.00 0.00 14 1001.2
20260504204050 79 60 2.0 0.0 0.00 0.00 0.00 15 1001.2
20260504203535 79 288 2.0 0.0 0.00 0.00 0.00 14 1001.3
20260504203017 78 69 3.0 0.0 0.00 0.00 0.00 14 1001.4
20260504202600 79 75 2.0 0.0 0.00 0.00 0.00 14 1001.4
20260504202039 79 69 2.0 0.0 0.00 0.00 0.00 16 1001.3
20260504201519 79 53 2.0 0.0 0.00 0.00 0.00 16 1001.4
20260504201101 79 115 2.0 0.0 0.00 0.00 0.00 16 1001.4
20260504200542 78 207 2.0 0.0 0.00 0.00 0.00 16 1001.7
20260504200023 78 116 2.0 0.0 0.00 0.00 0.00 15 1001.6
20260504195503 77 132 2.0 0.0 0.00 0.00 0.00 16 1001.6
20260504195052 78 360 2.0 0.0 0.00 0.00 0.00 16 1001.7
20260504194530 78 344 2.0 0.0 0.00 0.00 0.00 14 1001.7
20260504194014 78 274 2.0 0.0 0.00 0.00 0.00 17 1001.7
20260504193558 77 257 2.0 0.0 0.00 0.00 0.00 19 1001.9
20260504193048 77 53 2.0 0.0 0.00 0.00 0.00 18 1001.9
20260504192535 77 355 2.0 0.0 0.00 0.00 0.00 20 1001.9
20260504192017 77 308 2.0 0.0 0.00 0.00 0.00 20 1002.0
20260504191503 77 101 2.0 0.0 0.00 0.00 0.00 22 1002.2
20260504191045 76 59 2.0 0.0 0.00 0.00 0.00 22 1002.2
20260504190523 76 264 2.0 0.0 0.00 0.00 0.00 22 1002.3
20260504190105 76 215 2.0 0.0 0.00 0.00 0.00 22 1002.4
20260504185544 75 290 3.0 0.0 0.00 0.00 0.00 21 1002.4
20260504185025 75 24 3.0 0.0 0.00 0.00 0.00 19 1002.4
20260504184502 74 315 3.0 0.0 0.00 0.00 0.00 22 1002.6
20260504184045 73 174 2.0 0.0 0.00 0.00 0.00 23 1002.8
20260504183527 74 180 2.0 0.0 0.00 0.00 0.00 24 1002.7
20260504183008 74 46 2.0 0.0 0.00 0.00 0.00 24 1002.8
20260504182549 73 351 2.0 0.0 0.00 0.00 0.00 25 1003.0
20260504182034 73 15 2.0 0.0 0.00 0.00 0.00 25 1003.0
20260504181520 73 32 2.0 0.0 0.00 0.00 0.00 24 1003.0
20260504181101 74 351 2.0 0.0 0.00 0.00 0.00 25 1003.0
20260504180541 73 314 2.0 0.0 0.00 0.00 0.00 23 1002.9
20260504180021 73 46 2.0 0.0 0.00 0.00 0.00 24 1003.0
20260504175502 73 46 2.0 0.0 0.00 0.00 0.00 25 1002.7
20260504175052 73 275 2.0 0.0 0.00 0.00 0.00 25 1002.9
20260504174534 73 143 2.0 0.0 0.00 0.00 0.00 25 1002.7
20260504174010 73 265 2.0 0.0 0.00 0.00 0.00 24 1002.7
20260504173551 73 326 2.0 0.0 0.00 0.00 0.00 25 1002.6
20260504173027 72 106 2.0 0.0 0.00 0.00 0.00 26 1002.5
20260504172508 72 78 2.0 0.0 0.00 0.00 0.00 27 1002.4
20260504172054 72 311 2.0 0.0 0.00 0.00 0.00 28 1002.5
20260504171535 71 25 2.0 0.0 0.00 0.00 0.00 30 1002.4
20260504171014 71 83 2.0 0.0 0.00 0.00 0.00 30 1002.4
20260504170558 70 226 2.0 0.0 0.00 0.00 0.00 31 1002.7
20260504151039 63 360 1.0 0.0 0.00 0.00 0.00 40 1002.8
20260504150523 63 360 1.0 0.0 0.00 0.00 0.00 40 1002.8
20260504141059 62 360 1.0 0.0 0.00 0.00 0.00 40 1001.9
20260504140540 62 360 1.0 0.0 0.00 0.00 0.00 40 1002.0
20260504130527 62 360 0.0 0.0 0.00 0.00 0.00 39 1001.3
20260504110541 66 360 0.0 0.0 0.00 0.00 0.00 31 1000.3
20260504100544 69 360 0.0 0.0 0.00 0.00 0.00 27 999.8
20260504081515 69 360 1.0 0.0 0.00 0.00 0.00 21 999.5
20260504081058 68 360 1.0 0.0 0.00 0.00 0.00 22 999.6
20260504080546 70 360 1.0 0.0 0.00 0.00 0.00 21 999.4
20260504050559 73 360 0.0 0.0 0.00 0.00 0.00 18 998.3
20260504045524 74 360 1.0 0.0 0.00 0.00 0.00 18 998.3
20260504045003 74 360 0.0 0.0 0.00 0.00 0.00 18 998.5
20260504044552 73 360 1.0 0.0 0.00 0.00 0.00 18 998.6
20260504044030 75 360 0.0 0.0 0.00 0.00 0.00 18 998.3
20260504043508 76 360 0.0 0.0 0.00 0.00 0.00 19 998.3
20260504043058 76 360 0.0 0.0 0.00 0.00 0.00 18 998.2
20260504042540 76 360 0.0 0.0 0.00 0.00 0.00 18 998.1
20260504042021 77 360 0.0 0.0 0.00 0.00 0.00 18 998.0
20260504041506 77 360 1.0 0.0 0.00 0.00 0.00 17 997.9
20260504041045 77 360 1.0 0.0 0.00 0.00 0.00 17 997.8
20260504040523 77 360 0.0 0.0 0.00 0.00 0.00 17 997.8
20260504040003 78 360 0.0 0.0 0.00 0.00 0.00 17 998.0
20260504035549 78 360 0.0 0.0 0.00 0.00 0.00 17 998.0
20260504035028 79 360 1.0 0.0 0.00 0.00 0.00 17 998.0
20260504034509 79 360 1.0 0.0 0.00 0.00 0.00 16 997.8
20260504034055 79 360 1.0 0.0 0.00 0.00 0.00 16 997.5
20260504033534 80 360 1.0 0.0 0.00 0.00 0.00 16 997.3
20260504033020 80 360 1.0 0.0 0.00 0.00 0.00 15 997.1
20260504032603 80 360 1.0 0.0 0.00 0.00 0.00 15 996.9
20260504032042 81 360 1.0 0.0 0.00 0.00 0.00 14 996.9
20260504031522 81 360 2.0 0.0 0.00 0.00 0.00 14 996.9
20260504031004 81 360 2.0 0.0 0.00 0.00 0.00 14 996.5
20260504030547 82 360 2.0 0.0 0.00 0.00 0.00 13 996.5
20260504030024 82 360 2.0 0.0 0.00 0.00 0.00 13 996.4
20260504025509 82 360 2.0 0.0 0.00 0.00 0.00 13 996.9
20260504025056 82 360 2.0 0.0 0.00 0.00 0.00 13 996.9
20260504024542 82 360 1.0 0.0 0.00 0.00 0.00 13 997.0
20260504024016 82 360 1.0 0.0 0.00 0.00 0.00 13 996.9
20260504023600 82 360 1.0 0.0 0.00 0.00 0.00 13 996.8
20260504023037 82 360 1.0 0.0 0.00 0.00 0.00 13 996.8
20260504022523 83 360 2.0 0.0 0.00 0.00 0.00 13 996.9
20260504022004 83 360 2.0 0.0 0.00 0.00 0.00 12 996.7
20260504021553 84 360 2.0 0.0 0.00 0.00 0.00 12 996.8
20260504021029 84 360 2.0 0.0 0.00 0.00 0.00 12 996.8
20260504020507 83 360 2.0 0.0 0.00 0.00 0.00 12 996.9
20260504020107 83 360 2.0 0.0 0.00 0.00 0.00 12 997.5
20260504015531 83 360 2.0 0.0 0.00 0.00 0.00 12 997.6
20260504015010 84 360 2.0 0.0 0.00 0.00 0.00 12 997.6
20260504014600 84 360 3.0 0.0 0.00 0.00 0.00 12 997.4
20260504014044 85 360 3.0 0.0 0.00 0.00 0.00 12 997.4
20260504013524 85 360 2.0 0.0 0.00 0.00 0.00 12 997.3
20260504013003 85 360 2.0 0.0 0.00 0.00 0.00 11 997.3
20260504012546 85 360 2.0 0.0 0.00 0.00 0.00 11 997.4
20260504012024 85 360 2.0 0.0 0.00 0.00 0.00 11 997.4
20260504011502 85 360 2.0 0.0 0.00 0.00 0.00 11 997.5